Location: Cadenet
(43.7345°N, 5.3750°E)
Time: 08:51:06
(UTC+00:00)

MSX - Pass Details

Date: 18 February 2020
Orbit: 894 x 906 km, 98.8° (Epoch: 03 April)

Event Time Altitude Azimuth Distance (km) Brightness Sun altitude
Rises 03:48:25 0° 11° (N) 3,523 7.2 -30.4°
Reaches altitude 10° 03:50:50 10° 9° (N) 2,577 6.4 -30.0°
Enters shadow 03:54:57 47° 352° (N) 1,168 4.3 -29.3°
